Marshfield, WI

9:50 AM CDT on September 25, 2017 (GMT -0500)
Marshfield Municipal

Weather History for KMFI - January, 2013

Change the Weather History Date:

Wednesday, January 30, 2013

  Actual Average Record
Temperature  
Mean Temperature 21 °F -  
Max Temperature 32 °F 24 °F 47 °F (1919)
Min Temperature 10 °F 4 °F -35 °F (1951)
Degree Days  
Heating Degree Days 44    
Moisture  
Dew Point 17 °F    
Average Humidity 83    
Maximum Humidity 93    
Minimum Humidity 73    
Precipitation  
Precipitation 0.02 in - - ()
Sea Level Pressure  
Sea Level Pressure 29.48 in    
Wind  
Wind Speed 14 mph (NNW)    
Max Wind Speed 24 mph    
Max Gust Speed 31 mph    
Visibility 4 miles    
Events Fog , Snow    
Averages and records for this station are not official NWS values.
T = Trace of Precipitation, MM = Missing Value Source: NWS Daily Summary

Daily Weather History Graph

Daily Weather History Graph

Search for Another Location

Airport or City:

Trip Planner

Search our weather history database for the weather conditions in past years. The results will help you decide how hot, cold, wet, or windy it might be!

Date:

Astronomy

Jan. 30, 2013 Rise Set
Actual Time 7:21 AM CST 5:07 PM CST
Civil Twilight 6:50 AM CST 5:38 PM CST
Nautical Twilight 6:15 AM CST 6:13 PM CST
Astronomical Twilight 5:41 AM CST 6:47 PM CST
Moon 9:18 PM CST (1/30) 8:38 AM CST (1/30)
Length of Visible Light 10h 47m
Length of Day
9h 45m
Waning Gibbous, 87% of the Moon is Illuminated
Jan 30
Waning Gibbous
Feb 3
Last Quarter
Feb 10
New
Feb 17
First Quarter
Feb 25
Full

Hourly Weather History & Observations

Time (CST) Temp. Windchill Dew Point Humidity Pressure Visibility Wind Dir Wind Speed Gust Speed Precip Events Conditions
12:49 AM 32.0 °F 22.5 °F 26.6 °F 80% 29.51 in 10.0 mi North 12.7 mph 20.7 mph N/A   Overcast
12:54 AM 32.0 °F 23.0 °F 27.0 °F 82% 29.54 in 10.0 mi North 11.5 mph 19.6 mph N/A   Overcast
1:54 AM 30.9 °F 22.8 °F 26.1 °F 82% 29.53 in 10.0 mi North 9.2 mph 18.4 mph N/A   Overcast
2:08 AM 30.2 °F 19.3 °F 24.8 °F 80% 29.48 in 10.0 mi North 15.0 mph 21.9 mph N/A   Overcast
2:19 AM 30.2 °F 21.3 °F 24.8 °F 80% 29.48 in 10.0 mi North 10.4 mph - N/A   Overcast
2:41 AM 28.4 °F 18.5 °F 24.8 °F 86% 29.49 in 10.0 mi North 11.5 mph - N/A   Overcast
2:54 AM 28.9 °F 20.4 °F 25.0 °F 85% 29.53 in 10.0 mi North 9.2 mph - N/A   Overcast
3:32 AM 28.4 °F 19.1 °F 23.0 °F 80% 29.51 in 10.0 mi North 10.4 mph 19.6 mph N/A   Overcast
3:54 AM 28.0 °F 16.5 °F 23.0 °F 81% 29.54 in 10.0 mi North 15.0 mph 20.7 mph N/A   Overcast
4:54 AM 28.0 °F 18.6 °F 21.9 °F 78% 29.54 in 10.0 mi North 10.4 mph 19.6 mph N/A   Overcast
5:29 AM 26.6 °F 14.3 °F 21.2 °F 80% 29.46 in 2.5 mi North 16.1 mph 25.3 mph 0.00 in Snow Light Snow
5:44 AM 26.6 °F 14.7 °F 23.0 °F 86% 29.44 in 1.2 mi NNE 15.0 mph 25.3 mph 0.00 in Snow Light Snow
5:54 AM 27.0 °F 17.3 °F 21.9 °F 81% 29.48 in 1.2 mi North 10.4 mph 23.0 mph 0.00 in Snow Light Snow
6:06 AM 26.6 °F 13.4 °F 21.2 °F 80% 29.44 in 3.0 mi North 18.4 mph 27.6 mph 0.00 in Snow Light Snow
6:34 AM 26.6 °F 14.7 °F 21.2 °F 80% 29.44 in 2.5 mi North 15.0 mph 25.3 mph 0.00 in Snow Light Snow
6:50 AM 26.6 °F 15.7 °F 23.0 °F 86% 29.43 in 1.5 mi North 12.7 mph - 0.00 in Snow Light Snow
6:54 AM 26.1 °F 14.0 °F 23.0 °F 88% 29.48 in 1.5 mi North 15.0 mph 21.9 mph 0.00 in Snow Light Snow
7:12 AM 26.6 °F 16.2 °F 23.0 °F 86% 29.44 in 1.0 mi North 11.5 mph - 0.00 in Snow Light Snow
7:21 AM 26.6 °F 16.8 °F 23.0 °F 86% 29.43 in 0.8 mi North 10.4 mph 18.4 mph 0.00 in Snow Light Snow
7:54 AM 25.0 °F 14.2 °F 23.0 °F 92% 29.48 in 0.5 mi North 11.5 mph - 0.00 in Fog , Snow Snow
8:06 AM 24.8 °F 16.1 °F 23.0 °F 93% 29.42 in 0.5 mi North 8.1 mph - 0.00 in Fog , Snow Snow
8:24 AM 24.8 °F 15.3 °F 21.2 °F 86% 29.42 in 0.5 mi North 9.2 mph - 0.00 in Fog , Snow Snow
8:54 AM 24.1 °F 13.7 °F 21.9 °F 91% 29.50 in 0.5 mi NNW 10.4 mph - 0.01 in Fog , Snow Snow
9:54 AM 24.1 °F 11.5 °F 21.0 °F 88% 29.46 in 0.2 mi North 15.0 mph 24.2 mph 0.01 in Fog , Snow Snow
10:21 AM 24.8 °F 14.6 °F 21.2 °F 86% 29.43 in 0.8 mi North 10.4 mph 25.3 mph 0.00 in Snow Light Snow
10:40 AM 24.8 °F 11.9 °F 19.4 °F 80% 29.43 in 0.5 mi North 16.1 mph - 0.00 in Fog , Snow Snow
10:54 AM 24.1 °F 13.1 °F 19.9 °F 84% 29.47 in 0.5 mi North 11.5 mph - 0.00 in Fog , Snow Snow
11:39 AM 24.8 °F 13.4 °F 19.4 °F 80% 29.40 in 0.2 mi North 12.7 mph 24.2 mph 0.00 in Fog , Snow Snow
11:54 AM 23.0 °F 10.1 °F 19.9 °F 88% 29.45 in 0.2 mi North 15.0 mph 24.2 mph 0.00 in Fog , Snow Snow
12:04 PM 24.8 °F 12.4 °F 19.4 °F 80% 29.40 in 0.5 mi NNW 15.0 mph 21.9 mph 0.00 in Fog , Snow Snow
12:25 PM 23.0 °F 8.7 °F 19.4 °F 86% 29.40 in 1.0 mi NNW 18.4 mph - 0.00 in Snow Light Snow
12:29 PM 23.0 °F 8.3 °F 17.6 °F 80% 29.40 in 1.2 mi NNW 19.6 mph 26.5 mph 0.00 in Snow Light Snow
12:45 PM 23.0 °F 9.6 °F 17.6 °F 80% 29.39 in 2.0 mi NNW 16.1 mph 27.6 mph 0.00 in Snow Light Snow
12:54 PM 21.9 °F 7.3 °F 18.0 °F 85% 29.44 in 1.8 mi NNW 18.4 mph - 0.00 in Snow Light Snow
1:23 PM 21.2 °F 6.8 °F 17.6 °F 86% 29.39 in 0.8 mi NNW 17.3 mph 25.3 mph 0.00 in Snow Light Snow
1:44 PM 21.2 °F 5.6 °F 17.6 °F 86% 29.39 in 0.5 mi NNW 20.7 mph - 0.00 in Fog , Snow Snow
1:54 PM 21.9 °F 6.5 °F 17.1 °F 82% 29.44 in 0.8 mi NNW 20.7 mph - 0.00 in Snow Light Snow
2:00 PM 21.2 °F 4.5 °F 17.6 °F 86% 29.39 in 1.0 mi NNW 24.2 mph 28.8 mph 0.00 in Snow Light Snow
2:22 PM 19.4 °F 2.8 °F 15.8 °F 86% 29.39 in 0.8 mi NW 21.9 mph 27.6 mph 0.00 in Snow Light Snow
2:54 PM 18.0 °F 0.9 °F 14.0 °F 84% 29.46 in 0.8 mi NW 21.9 mph 31.1 mph 0.00 in Snow Light Snow
3:54 PM 17.1 °F 0.1 °F 12.9 °F 84% 29.48 in 1.0 mi NW 20.7 mph - 0.00 in Snow Light Snow
4:11 PM 15.8 °F -2.7 °F 12.2 °F 86% 29.43 in 1.5 mi NW 24.2 mph 31.1 mph 0.00 in Snow Light Snow
4:54 PM 16.0 °F -1.3 °F 10.9 °F 81% 29.50 in 1.5 mi NW 20.7 mph 27.6 mph 0.00 in Snow Light Snow
5:13 PM 15.8 °F -1.9 °F 10.4 °F 79% 29.45 in 2.0 mi NW 21.9 mph - 0.00 in Snow Light Snow
5:32 PM 15.8 °F -1.5 °F 10.4 °F 79% 29.45 in 3.0 mi NW 20.7 mph 27.6 mph 0.00 in Snow Light Snow
5:54 PM 15.1 °F -2.5 °F 10.0 °F 80% 29.53 in 4.0 mi NW 20.7 mph - 0.00 in Snow Light Snow
6:12 PM 15.8 °F -1.1 °F 10.4 °F 79% 29.47 in 2.5 mi NW 19.6 mph 25.3 mph 0.00 in Snow Light Snow
6:36 PM 14.0 °F -3.4 °F 8.6 °F 79% 29.47 in 4.0 mi NW 19.6 mph - 0.00 in Snow Light Snow
6:54 PM 12.9 °F -4.4 °F 9.0 °F 84% 29.55 in 4.0 mi NW 18.4 mph 26.5 mph 0.00 in Snow Light Snow
7:10 PM 12.2 °F -4.8 °F 8.6 °F 85% 29.48 in 6.0 mi NW 17.3 mph - 0.00 in Snow Light Snow
7:22 PM 12.2 °F -5.8 °F 8.6 °F 85% 29.49 in 6.0 mi NW 19.6 mph 25.3 mph 0.00 in Snow Light Snow
7:54 PM 12.9 °F -3.4 °F 7.0 °F 77% 29.56 in 9.0 mi NW 16.1 mph - 0.00 in   Overcast
8:51 PM 12.2 °F -5.8 °F 6.8 °F 79% 29.51 in 8.0 mi NW 19.6 mph - 0.00 in   Overcast
8:54 PM 12.9 °F -3.9 °F 7.0 °F 77% 29.57 in 8.0 mi NW 17.3 mph - 0.00 in   Overcast
9:12 PM 12.2 °F -4.3 °F 8.6 °F 85% 29.51 in 1.8 mi WNW 16.1 mph - 0.00 in Snow Light Snow
9:24 PM 12.2 °F -4.8 °F 6.8 °F 79% 29.51 in 3.0 mi WNW 17.3 mph - 0.00 in Snow Light Snow
9:54 PM 12.0 °F -4.0 °F 7.0 °F 80% 29.59 in 4.0 mi WNW 15.0 mph - 0.00 in Snow Light Snow
10:31 PM 10.4 °F -6.6 °F 6.8 °F 85% 29.53 in 2.5 mi WNW 16.1 mph - 0.00 in Snow Light Snow
10:41 PM 10.4 °F -5.4 °F 6.8 °F 85% 29.53 in 3.0 mi WNW 13.8 mph - 0.00 in Snow Light Snow
10:54 PM 10.0 °F -8.1 °F 5.0 °F 80% 29.60 in 3.0 mi WNW 18.4 mph - 0.00 in Snow Light Snow
11:36 PM 10.4 °F -7.7 °F 3.2 °F 73% 29.55 in 7.0 mi WNW 18.4 mph 26.5 mph 0.00 in   Overcast
11:54 PM 10.0 °F -9.1 °F 3.0 °F 73% 29.63 in 7.0 mi WNW 20.7 mph 26.5 mph 0.00 in   Overcast